Regional Weather Roundup
Issued by NWS Charleston, SC

Current Version | Previous Version | Graphics & Text | Print | Product List | Glossary On
Versions: 1 2 3 4 5 6 7 8 9 10 11 12 13 14 15 16 17 18 19 20 21 22 23 24 25 26 27 28 29 30 31 32 33 34 35 36 37 38 39 40 41 42 43 44 45 46 47 48 49 50
000 ASUS42 KCHS 270111 RWRCHS REGIONAL WEATHER ROUNDUP NATIONAL WEATHER SERVICE CHARLESTON SC 800 PM EST SUN FEB 26 2017 NOTE: "FAIR" INDICATES FEW OR NO CLOUDS BELOW 12,000 FEET WITH NO SIGNIFICANT WEATHER AND/OR OBSTRUCTIONS TO VISIBILITY. NOT ALL STATIONS ARE QUALITY CONTROLLED. USE DATA WITH CAUTION... ESPECIALLY DEWPOINT OBSERVATIONS. SCZ027-030-031-034>040-042>050-270200- ...SOUTHEAST SOUTH CAROLINA... CITY SKY/WX TMP DP RH WIND PRES REMARKS N CHARLESTON CLEAR 53 36 52 CALM 30.26R WATERFRONT PRK N/A 56 43 61 VRB2 30.26R MOUNT PLEASANT LGT RAIN 46 39 76 CALM 30.27S JOHNS ISLAND FAIR 48 39 71 CALM 30.27R PINOPOLIS N/A 55 34 44 VRB3 30.17R MONCKS CORNER FAIR 46 34 61 CALM 30.26R SUMMERVILLE FAIR 52 32 46 SE3 30.27R BEAUFORT MCAS CLEAR 56 44 64 CALM 30.26R BEAUFORT ARPT FAIR 52 41 66 CALM 30.25R HILTON HEAD IS CLEAR 52 41 66 CALM 30.26R WALTERBORO CLEAR 50 34 53 CALM 30.26R ALLENDALE FAIR 50 27 40 CALM 30.24R ...SOUTHERN MIDLANDS AND PEE DEE... CITY SKY/WX TMP DP RH WIND PRES REMARKS GEORGETOWN FAIR 45 37 76 CALM 30.29R KINGSTREE FAIR 43 32 65 CALM 30.26R ORANGEBURG CLEAR 49 29 46 E5 30.24R BARNWELL FAIR 48 30 49 CALM 30.25R AIKEN FAIR 45 28 53 CALM 30.28R MANNING FAIR 43 32 65 MISG 30.26R COLUMBIA CLEAR 49 30 48 CALM 30.25R SUMTER CLEAR 49 25 39 CALM 30.23R FLORENCE CLEAR 47 29 49 CALM 30.27R MYRTLE BEACH CLEAR 52 36 54 CALM 30.29R N MYRTLE BEACH CLEAR 46 40 79 CALM 30.28R $$ GAZ063-065-086>088-099>101-113>116-118-119-134>141-150-270200- ...SOUTHEAST GEORGIA... CITY SKY/WX TMP DP RH WIND PRES REMARKS SAVANNAH ARPT CLEAR 55 35 47 SE5 30.25R HUNTER AAF CLEAR 53 40 63 CALM 30.23R FORT STEWART CLEAR 52 38 57 CALM 30.23R STATESBORO CLEAR 47 39 74 CALM 30.24R SYLVANIA CLEAR N/A N/A N/A CALM 30.26R CLAXTON FAIR N/A N/A N/A CALM 30.25R ...CSRA...CENTRAL AND FAR SOUTHEAST GEORGIA... CITY SKY/WX TMP DP RH WIND PRES REMARKS THOMSON CLEAR 50 35 55 CALM 30.28R AUGUSTA-BUSH CLEAR 50 29 44 CALM 30.24R AUGUSTA-DANIEL CLEAR 59 20 22 E3 30.24R SWAINSBORO FAIR 46 32 57 CALM 30.24R VIDALIA CLEAR 54 34 47 CALM 30.24R EASTMAN FAIR 50 22 33 CALM 30.25R HAZLEHURST FAIR 54 31 42 SE3 30.22S ALMA CLEAR 47 38 71 CALM 30.22R WAYCROSS CLEAR 55 39 56 CALM 30.23R JESUP FAIR 52 37 58 CALM 30.25R BAXLEY FAIR 50 39 66 CALM 30.23R BRUNSWICK CLEAR 50 45 81 CALM 30.26R SAINT SIMONS CLEAR 58 39 49 E7 30.24R $$ SCZ027-028-034-036>038-045-046-048>050-GAZ119-141-270200- ...LAKE AND SUPPLEMENTAL COASTAL OBSERVATIONS... STATION/POSITION TIME TEMP WIND PRES WAVE SWELL AIR SEA DIR/SP/G HT/PER HT/PER/DIR (UTC) (F) (DEG/KT/KT) (MB) (FT/S) (FT/S/D) WINYAH BAY NOT AVBL LAKE MURRAY 0020 54 CALM 1023.0 ACE BASIN NERRS NOT AVBL FORT PULASKI 0042 56 63 150/ 3/ 4 1024.5R SAPELO ISLAND 0000 54 120/ 3 1024.0 $$ ANZ835-935-AMZ111-154-330-350-352-354-370-450-454-472-270200- ...C-MAN AND BUOY OBSERVATIONS... STATION/POSITION TIME TEMP WIND PRES WAVE SWELL AIR SEA DIR/SP/G HT/PER HT/PER/DIR (UTC) (F) (DEG/KT/KT) (MB) (FT/S) (FT/S/D) BUOY 41004 2350 59 69 210/ 2/ 2 1024.2 3/10 3/110/10 BUOY 41008 2350 59 62 120/ 10/ 12 1023.7 2/10 2/ 90/10 FOLLY BEACH CMAN 0000 58 190/ 5/ 6 1024.9R CAPERS NEARSHORE 0008 58 60 210/ 6/ 8 1024.4R FRIPP NEARSHORE 0008 59 62 180/ 6/ 8 1023.8R STATION/POSITION TIME TEMP WIND PRES WAVE SWELL AIR SEA DIR/SP/G HT/PER HT/PER/DIR (UTC) (F) (DEG/KT/KT) (MB) (FT/S) (FT/S/D) 5E ST. MARYS GA 0030 64 N/A 2/ 9 FRYING PAN BUOY 0050 57 69 290/ 2/ 6 1025.2R 3/ 9 3/120/ 9 BUOY 41025 0050 56 72 280/ 8/ 14 1025.1R 4/ 8 5/130/ 8 CAPE LOOKOUT NC 0000 54 250/ 5/ 6 1024.0R BUOY 41002 2350 66 71 350/ 10/ 12 1023.3 5/ 7 5/320/ 7 BUOY 41010 NOT AVBL ST AUGUSTINE FL 0000 61 67 40/ 10/ 11 1024.6R $$

USA.gov is the U.S. government's official web portal to all federal, state and local government web resources and services.